Weather History for Warner Robins, GA

Change the Weather History Date:

Sunday, October 28, 2012

  Actual Average Record
Temperature  
Mean Temperature 58 °F -  
Max Temperature 69 °F 72 °F 87 °F (1996)
Min Temperature 49 °F 49 °F 32 °F (2001)
Degree Days  
Heating Degree Days 6    
Growing Degree Days 8 (Base 50)    
Moisture  
Dew Point 47 °F    
Average Humidity 70    
Maximum Humidity 91    
Minimum Humidity 53    
Precipitation  
Precipitation 0.00 in - - ()
Sea Level Pressure  
Sea Level Pressure 29.78 in    
Wind  
Wind Speed 12 mph (NW)    
Max Wind Speed 25 mph    
Max Gust Speed 34 mph    
Visibility 10 miles    
Events      
Averages and records for this station are not official NWS values.
T = Trace of Precipitation, MM = Missing Value Source: NWS Daily Summary

Daily Weather History Graph

Daily Weather History Graph

Search for Another Location

Airport:

Trip Planner

Search our weather history database for the weather conditions in past years. The results will help you decide how hot, cold, wet, or windy it might be!

Date:

Astronomy

Oct. 28, 2012 Rise Set
Actual Time 7:48 AM EDT 6:46 PM EDT
Civil Twilight 7:23 AM EDT 7:12 PM EDT
Nautical Twilight 6:54 AM EDT 7:41 PM EDT
Astronomical Twilight 6:25 AM EDT 8:09 PM EDT
Moon 6:03 PM EDT (10/28) 6:42 AM EDT (10/28)
Length of Visible Light 11h 48m
Length of Day
10h 57m
Waxing Gibbous, 99% of the Moon is Illuminated
Oct 28
Waxing Gibbous
Oct 29
Full
Nov 6
Last Quarter
Nov 13
New
Nov 20
First Quarter

Hourly Weather History & Observations

Time (EDT) Temp. Dew Point Humidity Pressure Visibility Wind Dir Wind Speed Gust Speed Precip Events Conditions
12:55 AM 56.8 °F 49.8 °F 77% 29.79 in 10.0 mi NNW 11.5 mph - N/A   Mostly Cloudy
1:55 AM 55.0 °F 49.1 °F 80% 29.78 in 10.0 mi NW 10.4 mph - N/A   Clear
2:55 AM 53.6 °F 48.6 °F 83% 29.77 in 10.0 mi NW 8.1 mph - N/A   Clear
3:55 AM 51.8 °F 47.8 °F 86% 29.76 in 10.0 mi NW 6.9 mph - N/A   Clear
4:55 AM 52.0 °F 47.7 °F 85% 29.76 in 10.0 mi NW 8.1 mph - N/A   Clear
5:55 AM 50.4 °F 47.3 °F 89% 29.76 in 10.0 mi NW 6.9 mph - N/A   Clear
6:55 AM 49.6 °F 47.1 °F 91% 29.77 in 10.0 mi NW 8.1 mph - N/A   Clear
7:55 AM 49.6 °F 47.1 °F 91% 29.78 in 10.0 mi NW 6.9 mph - N/A   Mostly Cloudy
8:55 AM 53.2 °F 48.4 °F 84% 29.79 in 10.0 mi WNW 9.2 mph - N/A   Scattered Clouds
9:55 AM 57.0 °F 48.7 °F 74% 29.80 in 10.0 mi NW 10.4 mph - N/A   Clear
10:55 AM 60.4 °F 49.5 °F 67% 29.79 in 10.0 mi NNW 8.1 mph - N/A   Partly Cloudy
11:55 AM 64.8 °F 50.5 °F 60% 29.78 in 10.0 mi NW 13.8 mph - N/A   Clear
12:55 PM 65.7 °F 50.7 °F 58% 29.76 in 10.0 mi WNW 10.4 mph - N/A   Scattered Clouds
1:55 PM 68.2 °F 50.9 °F 54% 29.73 in 10.0 mi WNW 11.5 mph - N/A   Clear
2:55 PM 68.0 °F 50.4 °F 53% 29.73 in 10.0 mi NW 16.1 mph - N/A   Partly Cloudy
3:55 PM 64.6 °F 48.9 °F 57% 29.73 in 10.0 mi NW 25.3 mph - N/A   Mostly Cloudy
4:55 PM 61.5 °F 47.5 °F 60% 29.75 in 10.0 mi NW 21.9 mph - N/A   Overcast
5:55 PM 58.6 °F 45.0 °F 60% 29.76 in 10.0 mi NW 20.7 mph 29.9 mph N/A   Overcast
6:55 PM 56.7 °F 42.8 °F 60% 29.79 in 10.0 mi NW 23.0 mph 34.5 mph N/A   Overcast
7:55 PM 55.8 °F 42.6 °F 61% 29.81 in 10.0 mi NW 16.1 mph 27.6 mph N/A   Overcast
8:55 PM 54.0 °F 41.7 °F 63% 29.82 in 10.0 mi NNW 16.1 mph 27.6 mph N/A   Overcast
9:55 PM 52.2 °F 39.9 °F 63% 29.83 in 10.0 mi NNW 18.4 mph 34.5 mph N/A   Clear
10:55 PM 50.7 °F 39.4 °F 65% 29.84 in 10.0 mi NW 16.1 mph 27.6 mph N/A   Clear
11:55 PM 49.6 °F 39.4 °F 68% 29.84 in 10.0 mi NW 15.0 mph - N/A   Clear